Voltar ao catálogo

TIANQI 38

AtivoComunicaçõesLEO
NORAD 67477·PAYLOAD·🇨🇳 China

Lançado Jan 15, 2026 de Yellow Sea Launch Area

Loading…

Próximas Passagens (próximas 24 horas)

TLE

AtualizadoSource: Space-Track

Época: Sep 14, 2026, 11:38 UTC

1 67477U 26010B   26257.48494956 -.00000015  00000-0  78062-4 0  9995
2 67477  44.9790  44.1577 0009453  36.8752 323.2730 13.99184538 33902

Acompanhe TIANQI 38 em tempo real com AllMySat

Download on the App Store